Погода в Цаган Амане

Россия / Республика Калмыкия     47°33′51″N   46°43′25″E
темп.,
°C
ветер,
м/с
пор.,
м/с
влажн.,
%
обл.,
%
осадки,
мм/ч
давл.,
гПа
погр.,
м
4 декабря, сб
сб400:00+5ююв61489100 0.0 1022377
03:00+4ююв514914 0.0 1021350
06:00+4ююв513945 0.0 1020294
09:00+5ю6139272 0.0 1020371
12:00+9ю61178100 0.0 1019574
15:00+9ю611775 0.0 1018462
18:00+7ю6138965 0.0 1017339
21:00+7ю71492100 0.0 1016375
5 декабря, вс
вс500:00+6ю51393100 0.0 1015346
03:00+5ююв41094100 0.0 1014229
06:00+5юв3796100 0.0 1014185
09:00+5юв3694100 0.0 1014182
12:00+7ю3583100 0.0 1013270
15:00+7ююз2484100 0.0 1014194
18:00+6ю2386100 0.0 101443
21:00+7ююз3682100 0.0 1015165
6 декабря, пн
пн600:00+7юз3585100 0.1 1015147
03:00+7юз2383100 0.1 101652
06:00+7юз1186100 0.1 101716
09:00+7зюз2382100 0.1 101973
12:00+9з3478100 0.0 1019368
15:00+8зсз3583100 0.0 1020345
18:00+5зсз349295 0.0 102268
21:00+5сз2391100 0.0 102370
7 декабря, вт
вт700:00+4сз229142 0.0 102415
03:00+3ссз119213 0.0 102410
06:00+3всв11919 0.0 102510
09:00+4в23875 0.0 102687
12:00+8юв447436 0.0 1025291
15:00+7вюв4780100 0.0 1024225
18:00+6вюв598796 0.0 1024187
21:00+6юв6129191 0.0 1023245
8 декабря, ср
ср800:00+5вюв61492100 0.0 1022300
03:00+5вюв7158577 0.0 1021337
06:00+5вюв81775100 0.0 1019387
09:00+6вюв9196798 0.0 1018498
12:00+9вюв101855100 0.0 1017618
15:00+9вюв1017545 0.0 1015651
18:00+6вюв91962100 0.0 1015582
21:00+6вюв91862100 0.0 1014582